QPF
0.01 0.01 0.00 0.00 0.00 0.00 0.00 0.00 0.00 0.00 0.00 0.01 0.01 0.00 0.00 0.00 0.00 0.00 0.00 0.00 0.00 0.01 0.01 0.01 0.01 0.01 0.02 0.01 0.02 0.02 0.03 0.03 0.03 0.03 0.02 0.01 0.01 0.01 0.02 0.01 0.01 0.00 0.00 0.00
0.01 0.01 0.00 0.00 0.00 0.00 0.00 0.00 0.00 0.00 0.00 0.00 0.02 0.01 0.00 0.00 0.00 0.00 0.00 0.00 0.00 0.00 0.01 0.01 0.01 0.01 0.01 0.02 0.01 0.01 0.02 0.02 0.03 0.03 0.02 0.02 0.02 0.02 0.01 0.01 0.01 0.00 0.00 0.00
0.02 0.01 0.01 0.01 0.00 0.00 0.00 0.00 0.00 0.00 0.00 0.00 0.00 0.01 0.00 0.00 0.00 0.00 0.00 0.00 0.00 0.00 0.01 0.01 0.01 0.01 0.01 0.02 0.02 0.02 0.02 0.02 0.02 0.02 0.02 0.02 0.01 0.01 0.01 0.02 0.01 0.01 0.00 0.01
0.01 0.01 0.01 0.00 0.00 0.00 0.01 0.01 0.00 0.00 0.00 0.00 0.00 0.00 0.00 0.00 0.00 0.00 0.00 0.00 0.00 0.00 0.00 0.00 0.01 0.01 0.01 0.01 0.01 0.01 0.02 0.02 0.02 0.02 0.01 0.01 0.01 0.01 0.01 0.01 0.02 0.01 0.01 0.00
0.01 0.01 0.00 0.00 0.00 0.00 0.01 0.00 0.00 0.00 0.00 0.00 0.00 0.00 0.00 0.00 0.00 0.00 0.00 0.00 0.00 0.00 0.00 0.00 0.00 0.00 0.01 0.01 0.01 0.01 0.02 0.02 0.03 0.02 0.01 0.01 0.01 0.01 0.01 0.01 0.01 0.01 0.01 0.00
0.01 0.01 0.00 0.00 0.00 0.00 0.00 0.00 0.00 0.00 0.00 0.00 0.00 0.00 0.00 0.00 0.00 0.00 0.00 0.00 0.00 0.00 0.00 0.00 0.01 0.01 0.00 0.01 0.01 0.01 0.01 0.01 0.01 0.01 0.01 0.01 0.01 0.01 0.01 0.00 0.00 0.01 0.01 0.01
0.01 0.01 0.01 0.00 0.00 0.00 0.01 0.00 0.00 0.00 0.01 0.01 0.01 0.00 0.00 0.00 0.00 0.00 0.00 0.00 0.00 0.00 0.00 0.00 0.00 0.01 0.01 0.01 0.01 0.01 0.01 0.01 0.01 0.01 0.01 0.01 0.01 0.01 0.01 0.00 0.00 0.00 0.01 0.01
0.01 0.01 0.01 0.00 0.00 0.00 0.00 0.00 0.00 0.01 0.02 0.02 0.00 0.00 0.00 0.00 0.00 0.00 0.00 0.00 0.00 0.00 0.00 0.00 0.00 0.00 0.01 0.01 0.02 0.02 0.01 0.01 0.01 0.01 0.01 0.01 0.02 0.01 0.01 0.01 0.01 0.00 0.00 0.01
0.02 0.02 0.01 0.00 0.00 0.00 0.00 0.00 0.00 0.01 0.01 0.02 0.01 0.00 0.00 0.00 0.00 0.00 0.00 0.00 0.00 0.00 0.00 0.00 0.00 0.01 0.01 0.01 0.01 0.01 0.01 0.01 0.01 0.00 0.00 0.01 0.01 0.01 0.01 0.01 0.01 0.01 0.01 0.01
0.01 0.01 0.00 0.00 0.00 0.00 0.00 0.00 0.00 0.00 0.00 0.02 0.02 0.01 0.00 0.00 0.01 0.01 0.01 0.00 0.00 0.00 0.00 0.00 0.01 0.01 0.01 0.01 0.01 0.01 0.01 0.01 0.01 0.00 0.00 0.01 0.01 0.01 0.01 0.01 0.01 0.01 0.01 0.02
0.01 0.00 0.00 0.00 0.00 0.00 0.00 0.00 0.00 0.00 0.00 0.01 0.02 0.01 0.00 0.00 0.01 0.01 0.00 0.00 0.01 0.01 0.01 0.01 0.01 0.01 0.01 0.01 0.01 0.01 0.01 0.01 0.01 0.01 0.00 0.00 0.01 0.01 0.02 0.02 0.02 0.02 0.02 0.02
0.01 0.00 0.00 0.00 0.00 0.00 0.00 0.00 0.00 0.00 0.01 0.02 0.02 0.01 0.00 0.00 0.00 0.00 0.00 0.01 0.01 0.01 0.01 0.01 0.01 0.01 0.01 0.01 0.01 0.00 0.00 0.01 0.01 0.01 0.01 0.01 0.01 0.01 0.01 0.01 0.02 0.02 0.02 0.03
0.00 0.00 0.00 0.00 0.00 0.00 0.00 0.01 0.00 0.00 0.01 0.01 0.01 0.01 0.00 0.00 0.00 0.00 0.01 0.01 0.01 0.01 0.01 0.01 0.01 0.01 0.01 0.01 0.01 0.00 0.00 0.00 0.00 0.01 0.02 0.01 0.01 0.01 0.01 0.01 0.01 0.01 0.02 0.02
0.00 0.00 0.01 0.01 0.00 0.00 0.00 0.01 0.01 0.01 0.01 0.01 0.01 0.01 0.01 0.01 0.01 0.01 0.01 0.01 0.01 0.00 0.00 0.01 0.01 0.01 0.01 0.01 0.01 0.01 0.00 0.01 0.01 0.01 0.01 0.01 0.01 0.01 0.01 0.01 0.01 0.01 0.01 0.02
0.00 0.00 0.00 0.01 0.01 0.00 0.00 0.00 0.00 0.01 0.01 0.03 0.02 0.01 0.01 0.01 0.01 0.01 0.01 0.01 0.01 0.01 0.01 0.01 0.01 0.01 0.01 0.01 0.01 0.00 0.01 0.01 0.01 0.01 0.01 0.01 0.01 0.01 0.01 0.01 0.01 0.01 0.01 0.01
0.01 0.01 0.01 0.02 0.01 0.01 0.00 0.00 0.00 0.00 0.01 0.01 0.02 0.02 0.01 0.01 0.01 0.01 0.01 0.01 0.01 0.01 0.01 0.01 0.01 0.00 0.01 0.00 0.00 0.00 0.00 0.01 0.01 0.01 0.01 0.01 0.01 0.01 0.01 0.01 0.01 0.01 0.01 0.01
0.01 0.01 0.01 0.01 0.00 0.00 0.00 0.01 0.01 0.01 0.01 0.01 0.01 0.02 0.01 0.01 0.01 0.01 0.01 0.01 0.01 0.01 0.01 0.01 0.01 0.00 0.00 0.00 0.00 0.01 0.01 0.01 0.00 0.01 0.01 0.01 0.01 0.01 0.01 0.01 0.01 0.02 0.02 0.02
0.00 0.00 0.00 0.00 0.00 0.00 0.01 0.02 0.02 0.01 0.01 0.01 0.01 0.01 0.01 0.01 0.01 0.01 0.01 0.01 0.01 0.00 0.01 0.01 0.01 0.01 0.00 0.00 0.00 0.01 0.01 0.00 0.00 0.01 0.01 0.01 0.01 0.01 0.01 0.02 0.02 0.03 0.02 0.02
0.00 0.00 0.00 0.00 0.00 0.01 0.03 0.04 0.03 0.01 0.01 0.01 0.01 0.01 0.01 0.01 0.01 0.01 0.01 0.01 0.00 0.00 0.00 0.00 0.01 0.01 0.00 0.01 0.01 0.01 0.01 0.01 0.01 0.00 0.00 0.01 0.01 0.01 0.01 0.02 0.03 0.03 0.03 0.03
0.00 0.00 0.00 0.01 0.01 0.02 0.04 0.04 0.02 0.02 0.01 0.01 0.01 0.01 0.01 0.01 0.00 0.01 0.01 0.01 0.00 0.00 0.00 0.01 0.01 0.01 0.01 0.01 0.01 0.01 0.01 0.01 0.01 0.01 0.01 0.01 0.01 0.01 0.01 0.02 0.02 0.02 0.02 0.03
0.00 0.00 0.01 0.01 0.02 0.02 0.03 0.04 0.03 0.02 0.02 0.01 0.01 0.01 0.01 0.01 0.01 0.01 0.01 0.01 0.01 0.00 0.01 0.01 0.01 0.01 0.01 0.01 0.01 0.01 0.00 0.00 0.01 0.01 0.01 0.01 0.02 0.02 0.02 0.01 0.02 0.02 0.02 0.03
0.01 0.01 0.01 0.01 0.02 0.02 0.03 0.02 0.02 0.01 0.01 0.01 0.01 0.01 0.01 0.01 0.01 0.01 0.01 0.00 0.01 0.01 0.01 0.00 0.01 0.02 0.02 0.01 0.00 0.01 0.01 0.01 0.01 0.01 0.01 0.01 0.01 0.01 0.02 0.03 0.02 0.03 0.03 0.03
0.01 0.01 0.01 0.01 0.02 0.02 0.02 0.01 0.01 0.01 0.01 0.01 0.01 0.01 0.02 0.01 0.01 0.01 0.01 0.01 0.01 0.01 0.01 0.01 0.01 0.02 0.02 0.01 0.01 0.01 0.01 0.01 0.01 0.01 0.01 0.01 0.02 0.01 0.01 0.02 0.02 0.02 0.02 0.02
0.03 0.03 0.03 0.02 0.02 0.01 0.01 0.02 0.02 0.01 0.01 0.03 0.02 0.01 0.01 0.01 0.01 0.01 0.01 0.01 0.01 0.01 0.01 0.01 0.01 0.01 0.01 0.01 0.01 0.01 0.01 0.01 0.02 0.01 0.01 0.01 0.02 0.02 0.02 0.01 0.01 0.01 0.01 0.02
0.04 0.04 0.04 0.04 0.03 0.02 0.01 0.01 0.02 0.02 0.01 0.02 0.02 0.01 0.01 0.01 0.01 0.01 0.01 0.01 0.01 0.01 0.01 0.01 0.01 0.01 0.01 0.01 0.01 0.01 0.01 0.01 0.01 0.01 0.01 0.01 0.01 0.01 0.01 0.01 0.01 0.01 0.01 0.01
0.03 0.03 0.03 0.03 0.03 0.03 0.02 0.02 0.02 0.02 0.01 0.02 0.03 0.02 0.02 0.01 0.01 0.01 0.01 0.01 0.02 0.01 0.01 0.01 0.01 0.01 0.01 0.01 0.01 0.01 0.01 0.01 0.01 0.01 0.01 0.01 0.01 0.01 0.01 0.02 0.01 0.01 0.01 0.01
0.03 0.02 0.02 0.02 0.02 0.02 0.02 0.02 0.02 0.02 0.02 0.02 0.03 0.04 0.03 0.03 0.02 0.02 0.02 0.02 0.02 0.02 0.02 0.01 0.01 0.01 0.02 0.01 0.01 0.01 0.01 0.01 0.01 0.01 0.01 0.01 0.01 0.01 0.01 0.01 0.01 0.01 0.01 0.01
MSLP
1016.26 1016.50 1016.69 1016.83 1016.91 1016.93 1016.88 1016.75 1016.54 1016.28 1015.98 1015.66 1015.37 1015.13 1014.96 1014.88 1014.89 1014.98 1015.14 1015.34 1015.57 1015.82 1016.07 1016.33 1016.61 1016.91 1017.24 1017.61 1018.02 1018.44 1018.86 1019.27 1019.66 1020.00 1020.29 1020.54 1020.77 1020.98 1021.18 1021.39 1021.62 1021.85 1022.09 1022.32
1016.23 1016.38 1016.46 1016.48 1016.45 1016.36 1016.24 1016.07 1015.87 1015.64 1015.41 1015.18 1014.97 1014.81 1014.70 1014.64 1014.64 1014.69 1014.78 1014.91 1015.06 1015.23 1015.42 1015.65 1015.91 1016.22 1016.59 1017.00 1017.44 1017.92 1018.39 1018.86 1019.29 1019.68 1020.03 1020.34 1020.62 1020.88 1021.13 1021.38 1021.64 1021.89 1022.13 1022.35
1016.22 1016.28 1016.26 1016.16 1016.01 1015.83 1015.63 1015.42 1015.21 1015.01 1014.83 1014.68 1014.55 1014.45 1014.39 1014.36 1014.36 1014.38 1014.42 1014.48 1014.56 1014.66 1014.80 1014.99 1015.24 1015.55 1015.93 1016.37 1016.85 1017.37 1017.89 1018.40 1018.88 1019.32 1019.72 1020.08 1020.40 1020.70 1020.99 1021.27 1021.54 1021.79 1022.02 1022.23
1016.18 1016.15 1016.02 1015.82 1015.57 1015.30 1015.03 1014.78 1014.57 1014.39 1014.26 1014.17 1014.11 1014.08 1014.07 1014.07 1014.08 1014.09 1014.10 1014.11 1014.14 1014.20 1014.29 1014.45 1014.68 1014.98 1015.36 1015.81 1016.31 1016.85 1017.40 1017.93 1018.44 1018.92 1019.35 1019.74 1020.09 1020.42 1020.73 1021.02 1021.29 1021.55 1021.77 1021.95
1016.03 1015.91 1015.68 1015.39 1015.05 1014.71 1014.39 1014.12 1013.91 1013.76 1013.67 1013.64 1013.66 1013.70 1013.75 1013.80 1013.84 1013.86 1013.87 1013.87 1013.87 1013.90 1013.96 1014.09 1014.29 1014.57 1014.93 1015.37 1015.86 1016.40 1016.94 1017.48 1018.00 1018.48 1018.92 1019.32 1019.69 1020.03 1020.34 1020.63 1020.90 1021.15 1021.36 1021.53
1015.74 1015.51 1015.20 1014.82 1014.42 1014.03 1013.69 1013.41 1013.21 1013.10 1013.06 1013.10 1013.19 1013.30 1013.43 1013.55 1013.64 1013.70 1013.74 1013.75 1013.76 1013.77 1013.82 1013.93 1014.10 1014.35 1014.67 1015.08 1015.53 1016.03 1016.55 1017.06 1017.55 1018.02 1018.45 1018.84 1019.20 1019.53 1019.83 1020.12 1020.38 1020.62 1020.82 1020.99
1015.25 1014.93 1014.54 1014.10 1013.66 1013.25 1012.90 1012.63 1012.46 1012.39 1012.42 1012.52 1012.69 1012.89 1013.10 1013.29 1013.46 1013.60 1013.69 1013.74 1013.77 1013.81 1013.85 1013.94 1014.09 1014.30 1014.57 1014.92 1015.32 1015.75 1016.21 1016.67 1017.11 1017.54 1017.93 1018.30 1018.63 1018.95 1019.24 1019.52 1019.77 1020.01 1020.21 1020.38
1014.59 1014.18 1013.73 1013.26 1012.80 1012.39 1012.06 1011.82 1011.69 1011.67 1011.76 1011.93 1012.17 1012.45 1012.74 1013.02 1013.28 1013.49 1013.65 1013.77 1013.86 1013.92 1013.99 1014.07 1014.19 1014.36 1014.58 1014.86 1015.19 1015.55 1015.93 1016.32 1016.70 1017.06 1017.41 1017.73 1018.04 1018.33 1018.61 1018.87 1019.13 1019.36 1019.57 1019.75
1013.80 1013.33 1012.85 1012.37 1011.92 1011.53 1011.23 1011.04 1010.95 1010.98 1011.11 1011.34 1011.63 1011.98 1012.34 1012.70 1013.04 1013.34 1013.58 1013.77 1013.92 1014.04 1014.13 1014.23 1014.34 1014.48 1014.65 1014.87 1015.12 1015.40 1015.70 1016.01 1016.32 1016.63 1016.92 1017.20 1017.47 1017.74 1018.00 1018.26 1018.51 1018.75 1018.97 1019.16
1012.95 1012.46 1011.97 1011.51 1011.10 1010.76 1010.50 1010.35 1010.30 1010.36 1010.53 1010.78 1011.11 1011.50 1011.91 1012.32 1012.72 1013.09 1013.41 1013.68 1013.90 1014.07 1014.21 1014.33 1014.45 1014.58 1014.72 1014.89 1015.08 1015.30 1015.53 1015.77 1016.02 1016.27 1016.51 1016.75 1017.00 1017.24 1017.49 1017.73 1017.98 1018.22 1018.45 1018.65
1012.11 1011.64 1011.19 1010.78 1010.42 1010.14 1009.94 1009.82 1009.81 1009.88 1010.06 1010.31 1010.64 1011.02 1011.44 1011.88 1012.32 1012.73 1013.11 1013.44 1013.73 1013.96 1014.16 1014.33 1014.48 1014.61 1014.75 1014.90 1015.06 1015.24 1015.42 1015.62 1015.82 1016.02 1016.23 1016.45 1016.66 1016.89 1017.12 1017.37 1017.61 1017.85 1018.08 1018.28
1011.35 1010.93 1010.55 1010.21 1009.93 1009.72 1009.57 1009.49 1009.49 1009.57 1009.72 1009.94 1010.23 1010.58 1010.97 1011.39 1011.82 1012.26 1012.67 1013.05 1013.40 1013.70 1013.96 1014.19 1014.39 1014.57 1014.74 1014.90 1015.06 1015.22 1015.39 1015.57 1015.75 1015.93 1016.12 1016.31 1016.52 1016.73 1016.96 1017.19 1017.43 1017.66 1017.88 1018.08
1010.68 1010.34 1010.05 1009.80 1009.61 1009.46 1009.37 1009.32 1009.32 1009.38 1009.49 1009.66 1009.88 1010.17 1010.50 1010.87 1011.28 1011.70 1012.13 1012.54 1012.94 1013.30 1013.64 1013.94 1014.21 1014.45 1014.67 1014.88 1015.07 1015.26 1015.44 1015.62 1015.80 1015.98 1016.17 1016.36 1016.55 1016.76 1016.98 1017.20 1017.43 1017.65 1017.86 1018.04
1010.09 1009.83 1009.63 1009.48 1009.37 1009.29 1009.24 1009.22 1009.22 1009.25 1009.31 1009.42 1009.57 1009.78 1010.04 1010.35 1010.71 1011.10 1011.52 1011.96 1012.39 1012.81 1013.22 1013.60 1013.95 1014.27 1014.57 1014.85 1015.10 1015.34 1015.56 1015.77 1015.97 1016.16 1016.36 1016.55 1016.75 1016.95 1017.16 1017.38 1017.59 1017.80 1017.99 1018.15
1009.53 1009.35 1009.22 1009.15 1009.10 1009.09 1009.08 1009.08 1009.08 1009.09 1009.12 1009.17 1009.26 1009.39 1009.58 1009.83 1010.14 1010.50 1010.91 1011.35 1011.81 1012.29 1012.76 1013.22 1013.66 1014.07 1014.46 1014.82 1015.15 1015.45 1015.73 1015.98 1016.21 1016.43 1016.64 1016.84 1017.05 1017.25 1017.46 1017.66 1017.87 1018.06 1018.23 1018.36
1008.97 1008.83 1008.75 1008.72 1008.72 1008.75 1008.77 1008.79 1008.80 1008.81 1008.82 1008.84 1008.89 1008.97 1009.12 1009.32 1009.59 1009.93 1010.32 1010.77 1011.26 1011.78 1012.31 1012.84 1013.36 1013.86 1014.34 1014.79 1015.20 1015.57 1015.91 1016.21 1016.49 1016.73 1016.96 1017.18 1017.39 1017.59 1017.79 1017.99 1018.18 1018.36 1018.52 1018.64
1008.40 1008.25 1008.17 1008.15 1008.16 1008.20 1008.25 1008.29 1008.32 1008.34 1008.36 1008.39 1008.43 1008.51 1008.64 1008.83 1009.08 1009.41 1009.80 1010.26 1010.77 1011.32 1011.90 1012.50 1013.09 1013.67 1014.23 1014.76 1015.24 1015.68 1016.08 1016.43 1016.75 1017.03 1017.27 1017.50 1017.72 1017.92 1018.12 1018.31 1018.50 1018.67 1018.82 1018.93
1007.83 1007.63 1007.50 1007.44 1007.43 1007.46 1007.50 1007.56 1007.62 1007.68 1007.74 1007.81 1007.89 1008.00 1008.15 1008.36 1008.63 1008.97 1009.37 1009.84 1010.38 1010.96 1011.58 1012.22 1012.87 1013.52 1014.14 1014.73 1015.28 1015.78 1016.23 1016.63 1016.98 1017.28 1017.55 1017.79 1018.01 1018.21 1018.41 1018.60 1018.78 1018.94 1019.08 1019.20
1007.33 1007.02 1006.80 1006.66 1006.59 1006.58 1006.61 1006.68 1006.77 1006.88 1007.00 1007.14 1007.29 1007.47 1007.68 1007.94 1008.25 1008.62 1009.05 1009.55 1010.10 1010.71 1011.36 1012.03 1012.72 1013.41 1014.08 1014.72 1015.32 1015.87 1016.36 1016.80 1017.18 1017.50 1017.79 1018.04 1018.26 1018.47 1018.66 1018.84 1019.02 1019.18 1019.32 1019.43
1006.97 1006.53 1006.18 1005.93 1005.77 1005.70 1005.71 1005.78 1005.90 1006.06 1006.25 1006.47 1006.71 1006.98 1007.27 1007.60 1007.97 1008.39 1008.86 1009.38 1009.96 1010.59 1011.25 1011.95 1012.67 1013.39 1014.09 1014.77 1015.40 1015.98 1016.51 1016.97 1017.38 1017.72 1018.02 1018.28 1018.51 1018.71 1018.90 1019.08 1019.25 1019.40 1019.53 1019.64
1006.80 1006.22 1005.75 1005.38 1005.12 1004.98 1004.94 1005.00 1005.14 1005.34 1005.60 1005.90 1006.23 1006.59 1006.98 1007.39 1007.83 1008.30 1008.81 1009.37 1009.97 1010.61 1011.29 1012.00 1012.73 1013.47 1014.19 1014.89 1015.55 1016.16 1016.71 1017.19 1017.62 1017.98 1018.29 1018.56 1018.79 1018.99 1019.18 1019.35 1019.50 1019.65 1019.77 1019.86
1006.86 1006.17 1005.57 1005.09 1004.74 1004.52 1004.44 1004.47 1004.62 1004.85 1005.16 1005.53 1005.94 1006.38 1006.85 1007.33 1007.84 1008.37 1008.92 1009.51 1010.13 1010.79 1011.48 1012.20 1012.94 1013.68 1014.41 1015.12 1015.80 1016.42 1016.99 1017.49 1017.93 1018.31 1018.63 1018.90 1019.14 1019.34 1019.52 1019.68 1019.82 1019.94 1020.04 1020.12
1007.12 1006.36 1005.68 1005.12 1004.69 1004.41 1004.27 1004.28 1004.42 1004.66 1005.01 1005.42 1005.89 1006.39 1006.92 1007.47 1008.03 1008.61 1009.21 1009.82 1010.47 1011.14 1011.84 1012.56 1013.30 1014.04 1014.78 1015.49 1016.17 1016.80 1017.38 1017.89 1018.34 1018.72 1019.05 1019.33 1019.56 1019.76 1019.93 1020.07 1020.20 1020.30 1020.38 1020.42
1007.54 1006.75 1006.04 1005.44 1004.96 1004.64 1004.47 1004.45 1004.57 1004.81 1005.16 1005.60 1006.10 1006.64 1007.22 1007.81 1008.42 1009.04 1009.67 1010.32 1010.98 1011.67 1012.37 1013.09 1013.82 1014.56 1015.29 1015.99 1016.66 1017.28 1017.85 1018.36 1018.81 1019.20 1019.53 1019.80 1020.03 1020.22 1020.38 1020.51 1020.62 1020.70 1020.75 1020.77
1008.02 1007.27 1006.58 1005.98 1005.50 1005.16 1004.97 1004.93 1005.03 1005.27 1005.61 1006.05 1006.56 1007.13 1007.73 1008.36 1008.99 1009.64 1010.30 1010.97 1011.66 1012.35 1013.06 1013.77 1014.49 1015.21 1015.92 1016.60 1017.24 1017.84 1018.39 1018.89 1019.32 1019.70 1020.02 1020.28 1020.51 1020.69 1020.84 1020.95 1021.04 1021.09 1021.12 1021.11
1008.47 1007.80 1007.19 1006.64 1006.20 1005.88 1005.70 1005.66 1005.75 1005.97 1006.31 1006.74 1007.25 1007.82 1008.43 1009.07 1009.73 1010.41 1011.09 1011.78 1012.47 1013.17 1013.87 1014.57 1015.27 1015.96 1016.63 1017.27 1017.87 1018.43 1018.95 1019.41 1019.81 1020.16 1020.46 1020.71 1020.92 1021.09 1021.23 1021.33 1021.40 1021.44 1021.44 1021.41
1008.82 1008.29 1007.78 1007.33 1006.96 1006.70 1006.55 1006.53 1006.63 1006.84 1007.17 1007.59 1008.09 1008.66 1009.28 1009.92 1010.60 1011.29 1011.98 1012.68 1013.38 1014.08 1014.77 1015.45 1016.12 1016.76 1017.38 1017.96 1018.51 1019.01 1019.46 1019.87 1020.23 1020.54 1020.81 1021.04 1021.23 1021.39 1021.51 1021.60 1021.66 1021.68 1021.67 1021.63
Thickness
5677 5678 5677 5677 5677 5677 5677 5681 5678 5684 5686 5690 5692 5691 5691 5692 5692 5691 5690 5690 5691 5690 5691 5691 5691 5691 5690 5689 5689 5688 5685 5683 5682 5680 5678 5675 5673 5671 5669 5667 5665 5665 5663 5662
5666 5670 5670 5669 5673 5674 5674 5676 5679 5680 5682 5690 5689 5688 5686 5687 5685 5684 5685 5685 5686 5687 5687 5687 5687 5686 5685 5685 5685 5684 5682 5680 5677 5676 5673 5670 5668 5667 5665 5661 5661 5660 5659 5658
5659 5663 5661 5661 5672 5672 5671 5674 5675 5673 5679 5683 5680 5679 5680 5681 5680 5680 5680 5681 5681 5682 5683 5684 5685 5684 5682 5682 5682 5680 5678 5676 5672 5671 5667 5665 5663 5662 5659 5657 5656 5655 5655 5654
5649 5650 5642 5670 5678 5674 5670 5670 5673 5673 5675 5675 5674 5676 5677 5678 5676 5676 5676 5676 5677 5678 5679 5680 5681 5681 5680 5679 5678 5676 5674 5671 5668 5666 5663 5660 5659 5657 5655 5654 5652 5650 5650 5649
5640 5641 5652 5663 5666 5666 5662 5662 5670 5668 5668 5669 5670 5669 5672 5674 5672 5671 5671 5672 5672 5673 5674 5675 5675 5676 5675 5674 5673 5671 5669 5668 5665 5662 5659 5656 5654 5652 5651 5650 5647 5645 5644 5642
5633 5631 5639 5658 5663 5664 5659 5653 5665 5664 5662 5661 5661 5659 5664 5668 5666 5665 5665 5665 5665 5666 5669 5669 5669 5670 5669 5668 5667 5667 5665 5664 5662 5659 5656 5653 5651 5649 5647 5645 5643 5641 5640 5638
5628 5630 5645 5654 5654 5653 5642 5651 5658 5658 5656 5655 5654 5657 5660 5659 5658 5658 5657 5657 5658 5659 5661 5662 5663 5663 5662 5663 5662 5662 5661 5659 5657 5655 5652 5650 5647 5645 5642 5640 5638 5637 5635 5634
5626 5624 5634 5646 5645 5643 5647 5651 5650 5650 5650 5648 5650 5651 5651 5651 5650 5650 5649 5650 5650 5651 5653 5654 5655 5656 5656 5655 5656 5656 5654 5653 5652 5651 5649 5646 5643 5640 5638 5636 5633 5632 5630 5629
5628 5631 5637 5639 5640 5641 5642 5641 5642 5642 5643 5642 5642 5642 5642 5643 5643 5643 5643 5644 5644 5644 5645 5646 5648 5649 5649 5649 5649 5649 5648 5646 5646 5645 5644 5642 5639 5636 5634 5632 5630 5628 5626 5624
5620 5626 5629 5630 5632 5633 5633 5632 5634 5634 5634 5634 5634 5635 5635 5635 5636 5636 5636 5637 5637 5637 5638 5640 5640 5641 5642 5642 5642 5643 5642 5642 5641 5639 5638 5637 5635 5633 5631 5629 5627 5625 5623 5621
5614 5620 5621 5622 5623 5625 5625 5625 5625 5626 5626 5627 5627 5627 5627 5628 5629 5629 5629 5630 5630 5631 5632 5633 5634 5634 5635 5635 5636 5636 5637 5636 5635 5634 5633 5631 5629 5628 5627 5626 5625 5622 5620 5618
5610 5617 5615 5617 5618 5617 5616 5616 5617 5617 5618 5619 5619 5620 5621 5622 5622 5622 5622 5623 5624 5625 5626 5627 5627 5627 5628 5628 5630 5631 5631 5630 5629 5628 5627 5625 5624 5622 5619 5618 5616 5614 5613 5612
5606 5608 5608 5609 5610 5610 5608 5608 5609 5610 5610 5610 5612 5613 5613 5614 5615 5616 5616 5617 5618 5618 5619 5620 5620 5621 5622 5622 5623 5624 5624 5624 5623 5622 5622 5620 5619 5617 5615 5611 5608 5606 5605 5604
5597 5597 5597 5600 5601 5602 5602 5601 5601 5602 5603 5603 5604 5605 5606 5607 5608 5609 5610 5611 5611 5612 5613 5613 5613 5614 5616 5616 5616 5617 5617 5616 5616 5616 5615 5615 5614 5612 5611 5609 5606 5603 5599 5596
5589 5589 5591 5593 5593 5594 5594 5593 5593 5594 5595 5595 5596 5596 5598 5599 5600 5602 5603 5603 5604 5605 5606 5607 5607 5607 5609 5609 5610 5610 5610 5610 5610 5610 5609 5608 5607 5606 5605 5603 5601 5599 5596 5592
5582 5583 5583 5584 5584 5585 5586 5586 5586 5587 5587 5587 5588 5589 5591 5592 5593 5594 5595 5595 5596 5598 5599 5600 5600 5601 5602 5602 5603 5603 5603 5601 5602 5603 5603 5601 5600 5600 5598 5596 5595 5593 5591 5588
5572 5574 5575 5576 5577 5578 5578 5578 5578 5579 5580 5580 5581 5582 5584 5585 5585 5586 5587 5588 5589 5591 5593 5593 5594 5594 5594 5595 5596 5596 5596 5595 5593 5595 5596 5595 5594 5593 5592 5590 5589 5587 5585 5583
5568 5569 5570 5570 5571 5571 5571 5570 5571 5571 5573 5573 5574 5575 5577 5578 5580 5581 5581 5582 5583 5585 5586 5587 5587 5587 5588 5588 5588 5589 5590 5590 5589 5589 5589 5588 5587 5587 5585 5584 5583 5581 5579 5576
5560 5561 5562 5563 5563 5563 5563 5563 5564 5565 5566 5567 5568 5569 5571 5572 5574 5574 5575 5575 5577 5578 5579 5581 5579 5580 5581 5580 5580 5580 5582 5582 5582 5582 5581 5578 5578 5579 5578 5577 5576 5574 5572 5569
5553 5554 5555 5556 5556 5556 5556 5556 5557 5558 5559 5561 5562 5564 5565 5566 5567 5567 5568 5569 5570 5572 5573 5573 5573 5574 5574 5573 5571 5573 5574 5574 5575 5574 5573 5572 5571 5572 5571 5570 5569 5567 5565 5563
5546 5547 5547 5548 5549 5549 5550 5550 5551 5552 5553 5555 5556 5558 5559 5560 5560 5560 5561 5562 5563 5563 5564 5564 5566 5566 5567 5565 5563 5565 5566 5566 5566 5566 5565 5564 5564 5564 5563 5562 5561 5559 5558 5557
5537 5538 5539 5540 5541 5542 5543 5544 5545 5545 5547 5548 5550 5551 5551 5552 5552 5552 5553 5554 5554 5554 5556 5558 5558 5558 5558 5556 5557 5558 5558 5558 5558 5558 5557 5557 5556 5556 5555 5554 5553 5551 5550 5549
5529 5530 5531 5532 5533 5535 5536 5537 5538 5539 5540 5542 5543 5544 5546 5545 5545 5545 5545 5546 5546 5545 5547 5549 5549 5548 5547 5548 5550 5550 5550 5550 5550 5550 5549 5548 5549 5548 5547 5546 5545 5543 5542 5541
5522 5523 5524 5525 5526 5527 5528 5530 5531 5532 5533 5534 5535 5536 5538 5538 5538 5538 5538 5536 5536 5537 5539 5539 5538 5538 5538 5541 5542 5542 5542 5542 5542 5542 5541 5540 5540 5540 5539 5537 5536 5534 5533 5532
5515 5516 5517 5517 5518 5520 5521 5522 5523 5524 5526 5527 5528 5529 5529 5530 5530 5530 5529 5529 5528 5528 5530 5530 5529 5529 5531 5533 5534 5534 5534 5534 5533 5533 5532 5531 5531 5530 5530 5528 5527 5526 5524 5523
5507 5508 5509 5509 5510 5511 5513 5514 5515 5515 5517 5518 5520 5521 5521 5521 5521 5521 5521 5521 5521 5520 5521 5522 5522 5522 5523 5524 5525 5525 5524 5524 5523 5523 5523 5522 5522 5521 5520 5519 5518 5517 5516 5515
5499 5500 5500 5501 5501 5502 5503 5504 5506 5507 5508 5510 5511 5512 5512 5513 5513 5514 5514 5514 5513 5513 5514 5514 5514 5514 5514 5514 5515 5515 5515 5515 5514 5514 5514 5514 5513 5512 5511 5510 5510 5509 5508 5506